Temp
-11 -11 -11 -11 -11 -10 -10 -10 -10 -10 -10 -11 -11 -11 -11 -11 -10 -10 -10 -10 -10 -10 -10 -9 -9 -9 -9 -9 -8 -8 -7 -8 -8 -9 -9 -9 -8 -8 -7 -8 -8 -8 -7 -7 -8
-11 -11 -11 -11 -11 -10 -10 -10 -10 -10 -10 -10 -11 -11 -11 -11 -10 -10 -10 -10 -10 -10 -9 -9 -9 -9 -9 -9 -9 -8 -9 -9 -9 -9 -9 -9 -8 -8 -7 -7 -8 -8 -7 -8 -8
-12 -11 -11 -11 -10 -10 -10 -10 -10 -10 -10 -11 -11 -11 -11 -10 -10 -10 -10 -10 -9 -9 -9 -9 -9 -9 -9 -9 -9 -9 -9 -9 -10 -10 -9 -9 -9 -9 -8 -8 -9 -8 -8 -9 -9
-12 -11 -11 -11 -11 -10 -10 -10 -10 -10 -10 -10 -10 -10 -10 -10 -10 -10 -10 -10 -10 -9 -9 -9 -9 -9 -9 -9 -9 -8 -9 -9 -10 -9 -9 -9 -9 -9 -9 -9 -9 -9 -9 -9 -9
-11 -11 -11 -11 -11 -11 -11 -11 -10 -10 -10 -10 -10 -10 -10 -10 -10 -10 -10 -10 -10 -9 -9 -9 -9 -10 -10 -10 -10 -9 -10 -10 -10 -10 -10 -10 -10 -10 -9 -9 -10 -10 -9 -10 -9
-11 -11 -11 -11 -11 -11 -11 -11 -11 -11 -11 -11 -11 -11 -11 -10 -11 -10 -10 -10 -10 -10 -10 -10 -10 -10 -10 -10 -9 -10 -10 -9 -10 -10 -9 -9 -10 -10 -10 -10 -10 -10 -10 -10 -10
-10 -10 -11 -11 -11 -11 -11 -11 -11 -11 -11 -11 -11 -11 -11 -11 -11 -10 -11 -11 -11 -11 -11 -11 -11 -11 -11 -11 -10 -10 -10 -10 -11 -11 -10 -10 -10 -10 -10 -10 -10 -11 -11 -11 -11
-11 -11 -11 -10 -10 -11 -11 -11 -11 -11 -11 -11 -11 -11 -11 -11 -11 -11 -11 -11 -11 -11 -11 -11 -11 -11 -11 -11 -11 -11 -11 -11 -11 -11 -11 -10 -9 -11 -11 -11 -10 -11 -11 -11 -12
-11 -11 -11 -11 -11 -10 -10 -11 -11 -11 -11 -11 -11 -11 -11 -11 -11 -11 -11 -11 -11 -11 -11 -11 -12 -11 -12 -12 -12 -12 -11 -11 -11 -11 -11 -11 -10 -11 -12 -11 -11 -12 -12 -11 -11
-11 -11 -11 -11 -11 -11 -11 -11 -11 -11 -11 -11 -11 -11 -11 -11 -11 -11 -11 -11 -11 -11 -11 -11 -11 -12 -12 -12 -12 -12 -11 -11 -11 -12 -12 -12 -11 -12 -12 -12 -12 -12 -13 -12 -12
-11 -11 -11 -11 -11 -11 -11 -11 -11 -11 -11 -11 -11 -11 -11 -11 -11 -11 -11 -11 -11 -11 -11 -11 -11 -12 -12 -11 -11 -11 -11 -11 -11 -12 -11 -11 -11 -12 -12 -12 -12 -12 -12 -12 -13
-11 -11 -11 -11 -11 -11 -11 -11 -11 -11 -11 -11 -11 -11 -11 -11 -11 -11 -11 -11 -11 -12 -11 -11 -12 -12 -11 -11 -11 -11 -11 -12 -12 -12 -12 -12 -12 -12 -12 -12 -12 -12 -12 -13 -13
-11 -11 -11 -11 -11 -11 -11 -11 -11 -11 -12 -11 -11 -11 -11 -12 -11 -11 -11 -12 -12 -11 -12 -11 -12 -12 -12 -12 -12 -12 -12 -12 -12 -12 -12 -12 -11 -11 -12 -12 -12 -13 -13 -13 -13
-11 -11 -11 -11 -11 -11 -11 -11 -11 -11 -12 -12 -12 -12 -11 -11 -12 -11 -12 -12 -12 -12 -12 -12 -12 -12 -12 -12 -13 -12 -13 -12 -12 -12 -12 -12 -11 -12 -12 -12 -13 -13 -13 -13 -12
-11 -11 -11 -11 -11 -11 -11 -11 -12 -12 -12 -12 -12 -11 -11 -12 -12 -12 -12 -12 -12 -12 -12 -13 -13 -13 -13 -13 -13 -13 -13 -13 -13 -13 -12 -13 -12 -12 -12 -13 -13 -14 -14 -14 -14
-11 -11 -12 -12 -12 -11 -11 -12 -12 -12 -13 -12 -12 -12 -12 -12 -12 -12 -12 -12 -13 -13 -13 -13 -13 -13 -14 -14 -14 -14 -13 -13 -13 -13 -13 -13 -14 -13 -13 -13 -13 -14 -15 -14 -14
-11 -12 -12 -12 -12 -12 -12 -12 -12 -12 -12 -12 -13 -13 -13 -13 -13 -13 -13 -14 -13 -13 -13 -14 -14 -15 -15 -15 -15 -15 -15 -14 -14 -14 -13 -14 -14 -13 -14 -14 -15 -14 -14 -15 -15
-12 -12 -12 -12 -12 -12 -12 -12 -12 -12 -12 -12 -13 -14 -14 -14 -14 -14 -14 -14 -14 -14 -14 -14 -14 -15 -15 -15 -15 -15 -15 -16 -15 -15 -14 -15 -13 -13 -14 -15 -15 -15 -15 -15 -16
-13 -12 -12 -13 -13 -12 -12 -12 -12 -12 -12 -12 -13 -13 -14 -14 -15 -14 -14 -14 -14 -15 -15 -14 -13 -14 -15 -15 -15 -15 -15 -15 -16 -15 -14 -14 -14 -14 -14 -15 -15 -15 -15 -16 -16
-13 -13 -13 -13 -13 -13 -13 -13 -13 -13 -13 -13 -14 -14 -14 -14 -15 -15 -15 -15 -15 -15 -15 -15 -14 -14 -16 -16 -16 -16 -16 -16 -16 -16 -15 -14 -14 -14 -15 -15 -16 -16 -16 -17 -17
-13 -13 -13 -13 -13 -14 -14 -14 -14 -14 -14 -14 -15 -15 -15 -15 -16 -15 -15 -16 -16 -15 -15 -15 -15 -15 -16 -16 -16 -16 -16 -16 -17 -17 -17 -16 -14 -16 -16 -16 -16 -16 -17 -17 -17
-13 -14 -13 -13 -14 -14 -14 -14 -14 -15 -15 -15 -15 -15 -15 -15 -15 -16 -16 -16 -16 -16 -16 -15 -15 -14 -15 -16 -16 -16 -16 -17 -17 -17 -17 -17 -15 -16 -17 -17 -17 -17 -18 -18 -19
-14 -14 -14 -14 -14 -14 -14 -14 -14 -14 -14 -15 -15 -15 -15 -15 -15 -16 -16 -16 -16 -16 -16 -16 -15 -15 -15 -15 -16 -16 -16 -16 -17 -18 -17 -17 -15 -17 -18 -18 -19 -18 -18 -19 -18
-14 -14 -14 -14 -14 -14 -14 -14 -14 -14 -15 -15 -15 -15 -15 -15 -16 -15 -16 -17 -17 -17 -17 -16 -16 -16 -16 -16 -16 -16 -17 -18 -18 -18 -18 -18 -17 -18 -18 -18 -19 -20 -19 -19 -19
-14 -14 -14 -14 -14 -14 -14 -14 -15 -15 -15 -15 -15 -15 -16 -16 -16 -16 -17 -17 -17 -17 -17 -17 -16 -16 -16 -16 -17 -17 -17 -18 -18 -18 -18 -18 -18 -18 -19 -19 -19 -19 -19 -19 -20
-14 -14 -14 -14 -14 -14 -14 -15 -15 -15 -15 -16 -16 -16 -17 -16 -16 -17 -17 -18 -17 -17 -17 -17 -17 -16 -16 -17 -17 -17 -18 -18 -19 -19 -19 -20 -19 -20 -20 -19 -19 -19 -19 -20 -20
-15 -15 -15 -15 -14 -15 -15 -15 -15 -15 -16 -16 -17 -17 -18 -17 -17 -18 -18 -18 -17 -17 -17 -17 -17 -17 -18 -17 -18 -18 -19 -19 -20 -20 -20 -20 -20 -20 -20 -20 -20 -20 -20 -19 -20
Height
5749 5749 5751 5752 5754 5756 5759 5762 5765 5768 5771 5772 5774 5776 5778 5780 5783 5784 5787 5789 5790 5793 5797 5799 5802 5805 5807 5810 5813 5815 5817 5821 5825 5825 5829 5827 5828 5830 5832 5836 5835 5836 5836 5839 5843
5752 5751 5751 5753 5755 5757 5760 5762 5764 5767 5769 5771 5773 5774 5776 5778 5780 5781 5784 5785 5787 5790 5793 5795 5797 5800 5802 5803 5806 5808 5812 5814 5816 5816 5818 5818 5822 5824 5826 5828 5829 5830 5828 5831 5836
5756 5754 5754 5754 5755 5758 5759 5761 5763 5765 5767 5769 5770 5772 5773 5774 5776 5778 5780 5782 5784 5787 5789 5791 5793 5795 5796 5797 5800 5803 5806 5805 5807 5811 5813 5814 5818 5819 5821 5824 5824 5827 5827 5825 5828
5758 5757 5757 5757 5757 5757 5759 5760 5762 5764 5765 5767 5768 5769 5771 5772 5774 5775 5777 5779 5781 5782 5785 5786 5788 5790 5792 5793 5794 5797 5799 5800 5802 5804 5809 5810 5813 5816 5816 5821 5819 5820 5821 5822 5819
5760 5759 5758 5758 5758 5758 5758 5759 5760 5761 5763 5764 5765 5766 5767 5769 5771 5771 5772 5774 5776 5778 5780 5782 5783 5786 5786 5788 5789 5791 5792 5794 5795 5797 5802 5804 5807 5808 5810 5811 5812 5812 5813 5814 5814
5762 5760 5759 5758 5758 5758 5758 5758 5759 5759 5760 5761 5762 5763 5764 5766 5766 5767 5769 5771 5772 5774 5776 5777 5779 5780 5781 5783 5783 5785 5786 5786 5789 5791 5793 5795 5798 5798 5802 5799 5802 5803 5806 5807 5809
5762 5761 5760 5759 5757 5757 5757 5758 5758 5758 5759 5759 5760 5761 5762 5763 5763 5765 5766 5767 5769 5770 5772 5773 5775 5776 5778 5778 5779 5779 5781 5782 5783 5785 5786 5786 5792 5791 5789 5790 5792 5794 5796 5798 5801
5761 5760 5760 5759 5758 5757 5756 5756 5756 5756 5756 5757 5758 5758 5760 5759 5759 5762 5763 5763 5765 5766 5767 5769 5770 5771 5773 5773 5773 5774 5774 5776 5776 5777 5779 5779 5786 5785 5780 5782 5783 5784 5785 5787 5790
5759 5758 5757 5757 5757 5756 5755 5755 5754 5754 5754 5754 5755 5754 5755 5754 5755 5757 5758 5758 5759 5761 5761 5763 5764 5766 5767 5767 5767 5767 5765 5766 5769 5768 5769 5769 5772 5773 5773 5775 5777 5777 5778 5779 5783
5755 5754 5754 5754 5753 5753 5753 5753 5752 5752 5751 5751 5751 5753 5752 5752 5752 5751 5753 5753 5754 5755 5756 5757 5758 5759 5760 5759 5760 5757 5758 5759 5761 5762 5758 5758 5760 5761 5764 5767 5768 5770 5770 5771 5774
5751 5750 5749 5749 5749 5749 5749 5749 5750 5750 5749 5748 5748 5748 5748 5748 5748 5748 5748 5749 5750 5750 5750 5750 5753 5754 5751 5752 5752 5753 5753 5754 5754 5756 5748 5752 5751 5751 5752 5754 5758 5759 5761 5762 5763
5747 5745 5744 5744 5743 5743 5743 5744 5744 5745 5743 5745 5743 5743 5744 5742 5743 5744 5744 5745 5745 5744 5745 5747 5747 5742 5745 5746 5746 5745 5745 5747 5748 5748 5738 5746 5743 5744 5745 5745 5746 5747 5747 5749 5751
5743 5741 5740 5738 5738 5737 5736 5737 5737 5738 5738 5736 5737 5737 5738 5737 5737 5738 5738 5737 5738 5738 5738 5740 5740 5736 5738 5738 5738 5737 5738 5737 5733 5737 5732 5733 5730 5739 5738 5737 5738 5738 5739 5740 5740
5739 5737 5736 5734 5733 5731 5730 5730 5730 5731 5732 5730 5730 5730 5730 5731 5731 5730 5730 5732 5731 5730 5731 5735 5731 5730 5728 5731 5727 5728 5729 5724 5725 5723 5724 5725 5712 5729 5731 5729 5731 5731 5728 5728 5726
5733 5732 5729 5728 5727 5725 5724 5724 5723 5724 5724 5723 5722 5722 5723 5726 5725 5723 5723 5723 5723 5723 5725 5725 5724 5722 5723 5722 5719 5720 5719 5716 5713 5711 5709 5712 5712 5707 5718 5720 5724 5721 5717 5713 5714
5726 5726 5723 5723 5720 5719 5717 5717 5717 5718 5716 5714 5715 5716 5717 5717 5717 5716 5716 5717 5717 5715 5715 5721 5715 5715 5716 5714 5713 5712 5710 5708 5705 5702 5695 5703 5701 5694 5699 5704 5709 5709 5704 5699 5698
5719 5719 5718 5715 5714 5712 5711 5710 5711 5709 5709 5708 5707 5708 5710 5709 5709 5708 5709 5709 5709 5707 5707 5709 5710 5708 5706 5704 5707 5704 5702 5696 5692 5692 5686 5691 5684 5684 5686 5688 5688 5688 5692 5692 5690
5713 5711 5709 5708 5706 5705 5704 5704 5702 5701 5700 5701 5699 5698 5699 5699 5699 5698 5699 5700 5700 5698 5698 5697 5701 5702 5700 5697 5695 5697 5694 5688 5680 5678 5678 5678 5670 5675 5675 5674 5673 5673 5674 5675 5677
5704 5702 5700 5700 5698 5697 5696 5695 5694 5694 5693 5692 5692 5690 5689 5689 5690 5690 5689 5689 5687 5688 5686 5683 5685 5687 5688 5686 5685 5684 5683 5680 5671 5669 5663 5665 5662 5661 5662 5661 5658 5657 5656 5656 5657
5702 5699 5695 5693 5691 5690 5688 5687 5687 5686 5685 5685 5684 5684 5682 5681 5681 5681 5680 5680 5679 5677 5675 5674 5669 5671 5677 5673 5672 5671 5668 5665 5663 5658 5650 5653 5651 5651 5650 5647 5647 5646 5643 5641 5639
5701 5698 5695 5691 5687 5685 5682 5681 5679 5679 5677 5678 5676 5675 5675 5674 5672 5671 5670 5673 5669 5665 5666 5664 5661 5661 5660 5664 5664 5660 5654 5652 5652 5647 5643 5638 5638 5639 5636 5637 5635 5631 5628 5625 5621
5698 5696 5692 5689 5686 5682 5679 5678 5676 5674 5673 5670 5669 5667 5666 5664 5663 5662 5662 5657 5658 5658 5655 5652 5648 5647 5649 5648 5644 5643 5644 5643 5638 5637 5632 5629 5627 5628 5626 5625 5618 5616 5613 5610 5607
5696 5694 5691 5688 5685 5681 5677 5675 5674 5672 5669 5667 5664 5661 5659 5656 5653 5654 5652 5649 5648 5645 5643 5642 5639 5636 5635 5635 5633 5631 5630 5629 5627 5624 5619 5617 5619 5616 5614 5607 5606 5600 5600 5598 5594
5694 5691 5688 5685 5682 5679 5674 5670 5667 5665 5664 5661 5658 5654 5651 5648 5645 5642 5642 5640 5637 5635 5634 5630 5630 5629 5627 5624 5623 5621 5619 5619 5617 5612 5613 5607 5608 5607 5599 5596 5594 5591 5588 5586 5581
5690 5687 5684 5680 5678 5674 5672 5668 5664 5660 5655 5652 5650 5646 5642 5639 5635 5633 5631 5629 5629 5627 5623 5622 5617 5617 5615 5614 5612 5610 5610 5608 5604 5604 5598 5601 5595 5593 5591 5589 5587 5584 5581 5578 5574
5684 5682 5678 5675 5672 5669 5665 5662 5657 5654 5650 5646 5641 5636 5631 5627 5625 5625 5620 5619 5620 5618 5614 5611 5608 5605 5605 5601 5600 5599 5598 5596 5596 5595 5592 5589 5589 5586 5584 5581 5579 5576 5573 5571 5567
5678 5676 5672 5669 5665 5663 5659 5655 5650 5646 5641 5635 5631 5628 5622 5617 5615 5614 5612 5611 5608 5607 5603 5602 5599 5596 5596 5592 5591 5592 5590 5589 5587 5585 5585 5583 5581 5578 5577 5573 5570 5567 5564 5562 5560
Wind_Speed
7 3 3 12 19 21 21 20 21 22 22 22 21 20 20 20 23 25 25 24 23 23 23 26 28 28 28 29 32 34 35 33 32 33 30 36 43 44 46 44 48 50 52 52 49
14 9 4 4 11 17 19 20 20 20 21 22 21 21 20 20 21 21 22 23 24 25 24 25 26 26 27 28 28 29 28 28 29 33 33 38 44 45 48 48 47 47 50 49 49
11 11 10 6 4 8 13 17 19 20 20 20 21 22 22 22 22 22 22 22 23 24 25 26 26 26 26 26 26 26 26 29 30 30 32 36 36 40 45 45 45 46 47 49 48
7 8 7 6 5 3 6 10 13 16 18 19 20 21 23 23 24 24 25 25 24 24 24 25 26 25 26 27 28 28 29 30 29 31 31 33 34 34 37 36 41 43 43 45 49
10 4 2 2 2 2 4 5 8 11 14 17 19 20 21 22 22 25 26 26 26 26 25 25 24 22 24 24 26 27 27 28 28 31 31 31 32 34 36 38 38 40 42 43 44
13 11 5 3 4 5 5 6 7 8 9 11 13 15 16 17 19 21 22 22 22 23 22 23 23 23 26 26 29 29 30 33 32 31 35 35 34 38 37 40 39 40 41 42 43
8 9 8 6 2 4 9 11 11 11 12 13 13 14 15 16 20 20 19 19 21 21 22 24 24 26 24 27 29 30 31 30 31 31 34 38 36 37 40 42 42 43 43 42 43
9 7 7 6 6 4 2 3 6 10 15 18 18 19 18 21 22 21 21 23 24 25 25 26 27 27 27 29 30 31 33 32 33 35 34 40 38 34 42 44 45 45 46 47 46
13 11 9 9 7 7 7 7 6 6 7 8 10 13 16 21 23 23 26 27 28 28 29 28 29 29 29 31 33 34 38 38 37 38 39 42 43 40 39 42 42 43 46 49 48
15 15 15 13 12 11 10 10 11 11 12 12 11 12 13 14 15 18 18 19 22 23 24 24 25 25 27 30 32 36 34 33 32 33 38 40 40 43 43 41 40 38 40 43 43
17 16 16 17 17 16 15 15 15 15 15 15 15 15 15 17 17 18 19 19 19 20 22 22 20 20 27 28 28 29 29 29 28 27 36 32 34 36 37 37 39 44 45 44 43
19 17 18 18 19 20 20 20 20 19 22 17 20 20 17 21 22 21 22 22 23 25 26 25 23 30 29 28 30 31 31 28 29 29 40 31 35 34 34 33 34 36 38 39 41
21 19 16 19 19 21 22 21 22 23 23 27 24 25 23 24 24 24 24 27 27 27 28 26 27 32 31 32 32 33 33 34 38 35 41 39 43 34 36 36 35 37 36 37 39
23 22 21 19 18 21 23 21 23 23 24 28 29 29 29 28 29 29 30 29 30 31 31 26 32 33 36 32 36 37 35 41 40 43 43 41 52 37 35 38 36 36 39 41 43
26 24 25 23 23 22 23 23 24 23 25 28 29 29 30 28 28 29 29 30 32 34 34 31 32 36 36 36 39 39 40 43 46 48 51 47 48 51 41 38 32 34 41 45 45
30 26 28 26 26 27 26 23 23 24 27 29 29 29 28 28 29 30 31 31 34 37 37 32 37 38 37 39 41 43 44 46 48 50 55 48 49 54 48 43 37 36 41 46 46
30 29 29 32 30 30 29 27 26 26 27 30 31 31 30 32 33 34 34 33 31 34 34 32 33 36 39 41 38 42 43 47 50 50 53 47 54 54 51 46 44 43 40 40 43
31 30 29 30 33 34 33 31 30 29 29 28 32 34 33 34 35 37 36 35 35 37 38 41 40 37 39 42 44 40 40 45 51 52 51 50 56 52 52 49 47 45 44 43 44
23 26 30 29 31 32 33 32 32 31 31 31 30 34 36 34 35 35 36 36 37 37 41 44 42 41 39 41 43 41 40 41 48 51 54 53 55 56 54 53 53 51 51 51 51
23 23 22 24 29 31 29 28 29 30 31 30 30 32 34 35 37 38 39 38 39 44 46 47 51 49 43 46 47 46 48 49 49 52 57 53 54 52 53 55 54 52 52 52 53
20 21 20 22 23 24 21 23 25 24 27 25 28 29 27 31 37 40 42 39 42 44 43 44 47 48 46 41 43 43 47 50 51 56 58 57 56 53 54 52 52 55 58 60 63
21 21 21 21 20 20 20 21 21 21 23 27 29 30 30 30 32 34 34 37 37 38 41 42 45 46 43 41 42 41 40 43 46 48 49 51 54 50 52 52 56 56 56 56 54
20 20 20 20 20 19 21 21 22 23 25 25 28 29 30 33 35 32 32 35 35 36 39 39 42 44 45 44 44 44 44 42 40 41 47 49 51 52 48 50 48 50 41 36 39
21 22 22 20 22 23 24 25 27 28 27 28 31 33 32 32 32 33 32 34 34 35 34 37 37 37 40 42 43 45 44 40 41 48 46 49 47 41 43 40 30 28 30 34 36
22 24 25 24 24 26 26 27 29 31 34 36 36 36 35 34 33 34 34 33 32 33 36 36 40 39 40 40 41 42 41 41 44 41 44 35 39 33 26 24 26 29 30 28 29
25 25 26 27 28 29 31 31 34 34 36 37 42 39 36 37 36 31 33 31 29 31 34 37 38 39 36 37 37 37 36 35 31 30 32 31 26 23 23 20 21 24 27 28 31
28 29 29 30 30 31 32 34 35 36 37 42 43 37 35 35 33 30 28 27 30 30 32 33 33 34 30 34 35 30 25 27 30 29 28 27 25 24 26 28 28 30 34 34 29
Wind_Direction
58 68 182 196 196 195 199 204 209 215 221 227 228 227 226 227 227 228 230 232 233 232 229 232 236 237 237 235 234 236 240 244 244 242 236 232 234 236 245 243 246 250 248 254 252
56 62 91 168 207 207 208 211 214 217 222 227 229 229 228 227 226 225 226 230 232 234 233 232 235 236 237 240 240 241 240 238 237 234 231 231 238 239 241 243 246 249 257 257 257
51 59 64 87 153 209 219 223 226 226 229 232 233 234 234 233 231 231 230 229 230 231 233 236 236 240 242 246 247 247 244 240 238 236 235 238 240 242 246 248 248 251 254 260 260
39 53 66 76 98 158 206 221 228 232 234 235 238 239 238 239 243 239 237 238 239 240 238 240 243 246 251 253 252 251 252 252 249 248 243 242 244 244 250 251 252 253 253 255 262
17 4 55 94 122 156 182 201 215 223 227 231 234 237 239 241 242 244 244 243 244 246 248 247 247 244 246 250 253 250 251 249 247 249 248 247 249 247 250 251 248 250 252 252 255
9 18 8 257 225 217 217 219 220 223 223 224 224 225 228 231 231 234 238 240 240 241 240 241 241 241 244 246 250 251 249 252 249 247 249 244 238 244 243 248 248 249 250 253 255
357 351 357 6 13 252 240 236 233 232 232 232 232 232 231 229 232 232 232 234 236 238 237 238 241 243 247 248 251 254 256 258 261 258 255 254 250 252 245 243 245 246 248 250 251
321 327 324 318 321 318 271 238 236 240 241 240 241 243 242 243 245 244 239 239 239 241 246 249 249 250 251 256 257 261 261 260 259 258 259 259 255 251 252 252 251 245 244 245 246
299 296 297 300 289 276 274 270 258 250 243 240 241 239 238 243 251 252 251 251 254 254 253 253 255 256 256 257 258 259 260 260 261 266 265 264 261 255 253 258 258 257 256 258 258
298 290 283 279 279 281 274 266 260 257 253 250 252 243 244 250 251 250 248 248 249 253 257 257 257 260 262 261 258 259 262 265 266 264 264 265 266 265 261 256 253 255 259 260 260
296 288 285 279 273 270 270 270 266 267 260 256 251 249 253 251 250 252 257 256 256 256 256 257 263 264 254 257 262 264 265 267 269 269 267 268 267 269 268 267 265 261 257 254 253
313 294 284 281 278 273 266 264 267 268 272 263 265 259 254 255 254 254 257 255 255 255 257 259 265 258 263 263 264 265 268 271 265 266 268 265 267 266 269 270 267 266 266 266 265
320 309 299 287 278 275 272 268 265 263 265 272 263 261 260 262 261 259 260 259 259 262 260 261 264 266 267 267 268 267 272 268 269 261 264 271 265 266 266 270 270 270 270 269 269
304 306 303 299 284 275 272 270 268 266 263 263 262 264 263 263 265 265 262 261 263 263 266 266 263 269 271 273 274 270 274 273 273 275 275 270 279 272 273 272 270 268 267 267 266
292 291 293 296 290 280 276 272 267 265 268 266 264 262 264 264 263 264 263 263 261 264 269 267 270 269 274 276 274 278 274 276 279 280 281 278 279 283 272 269 268 269 268 266 267
292 290 289 289 286 287 280 274 273 267 262 263 267 267 267 264 263 264 263 264 267 272 272 267 269 272 274 272 276 277 278 278 277 277 276 284 284 280 282 283 276 264 260 265 266
293 292 288 285 284 280 280 276 272 272 270 266 266 265 266 268 269 267 267 272 269 268 270 261 262 268 273 274 274 278 279 280 276 277 281 281 278 280 288 290 285 276 267 266 270
291 290 288 286 283 280 277 276 271 271 275 274 268 261 256 255 260 266 269 268 266 264 269 267 262 266 266 270 275 269 270 271 278 278 277 276 278 285 288 290 289 286 281 273 267
313 294 289 288 288 289 281 275 276 278 277 279 275 270 269 267 266 269 272 275 277 282 280 281 282 283 285 285 285 285 281 276 274 277 280 282 284 286 289 290 289 290 288 285 281
355 351 330 306 290 286 286 286 287 286 285 285 287 285 282 283 276 268 268 271 272 276 277 281 285 284 288 285 287 291 286 280 281 283 281 280 282 283 286 288 291 290 288 286 283
352 342 340 342 354 349 321 308 299 294 289 287 285 283 283 279 277 278 279 276 275 278 278 278 280 284 281 276 275 273 276 280 282 279 281 284 285 286 287 288 288 286 286 285 284
355 348 349 348 347 343 341 345 338 326 313 303 292 286 280 277 275 272 275 273 278 276 277 280 282 280 277 279 279 277 272 270 271 277 279 278 281 283 286 288 286 287 285 284 283
342 345 346 349 351 352 347 341 334 323 318 312 303 299 293 284 280 276 274 275 276 279 281 282 279 280 282 282 281 280 279 278 280 277 276 279 286 291 294 287 289 288 292 294 291
330 331 334 337 341 342 342 341 340 337 332 319 308 300 294 289 285 283 276 275 279 281 284 282 280 284 284 282 283 281 281 279 274 272 280 279 287 289 285 288 286 290 297 301 301
320 320 322 323 328 329 331 329 330 332 329 328 320 306 295 289 282 283 281 274 272 275 281 281 283 285 282 280 277 276 276 273 273 281 283 290 291 290 283 277 279 288 290 299 302
307 310 312 314 318 319 319 322 321 322 322 322 319 309 296 286 285 284 279 275 271 273 280 283 285 283 283 280 277 277 274 276 283 280 285 290 297 277 270 278 291 296 288 289 292
312 310 309 308 311 313 314 313 315 315 319 320 316 306 294 289 285 284 278 275 279 283 283 286 283 280 281 274 274 278 283 286 285 288 291 296 296 281 281 282 296 295 297 291 287